ASA100 KLAS-KBUR

Flight info

Callsign ASA100
Flight time 0h 42m
Altitude 24000
Route RADYR2 SLVRR KREME JANNY5
Aircraft E75L/M-SDE3GILORVW/S

Departure

Time 2026-05-06 04:25
Airport Harry Reid International Airport (KLAS)

Arrival

Time 2026-05-06 05:08
Airport Hollywood Burbank/Bob Hope Airport (KBUR)
Time Latitude Longitude Altitude Speed Heading
2026-05-06 04:08 36.07992 -115.14698 2116 ft 0 kts 59°
2026-05-06 04:16 36.07989 -115.14704 2113 ft 2 kts 61°
2026-05-06 04:17 36.07982 -115.14723 2113 ft 2 kts 68°
2026-05-06 04:17 36.07977 -115.14742 2111 ft 2 kts 82°
2026-05-06 04:17 36.07978 -115.14762 2110 ft 2 kts 109°
2026-05-06 04:17 36.07987 -115.14778 2114 ft 2 kts 143°
2026-05-06 04:18 36.07995 -115.14784 2113 ft 0 kts 155°
2026-05-06 04:20 36.07992 -115.14783 2113 ft 3 kts 155°
2026-05-06 04:20 36.07938 -115.14752 2111 ft 14 kts 155°
2026-05-06 04:20 36.07863 -115.14709 2111 ft 10 kts 153°
2026-05-06 04:21 36.07834 -115.14703 2110 ft 4 kts 188°
2026-05-06 04:21 36.07785 -115.14686 2110 ft 12 kts 129°
2026-05-06 04:21 36.07769 -115.14553 2105 ft 18 kts 94°
2026-05-06 04:21 36.07787 -115.14451 2103 ft 7 kts 16°
2026-05-06 04:22 36.07831 -115.14389 2101 ft 15 kts 93°
2026-05-06 04:22 36.07829 -115.14237 2095 ft 21 kts 88°
2026-05-06 04:22 36.07827 -115.14042 2091 ft 24 kts 92°
2026-05-06 04:23 36.07827 -115.13605 2084 ft 29 kts 89°
2026-05-06 04:23 36.07827 -115.13352 2078 ft 31 kts 90°
2026-05-06 04:23 36.07826 -115.13057 2064 ft 36 kts 89°
2026-05-06 04:23 36.07849 -115.12749 2051 ft 31 kts 96°
2026-05-06 04:24 36.07833 -115.12565 2045 ft 16 kts 91°
2026-05-06 04:24 36.07827 -115.12405 2046 ft 22 kts 90°
2026-05-06 04:24 36.07787 -115.12239 2042 ft 17 kts 167°
2026-05-06 04:24 36.07661 -115.12243 2042 ft 12 kts 206°
2026-05-06 04:25 36.07639 -115.12434 2045 ft 57 kts 269°
2026-05-06 04:25 36.07637 -115.13281 2076 ft 137 kts 271°
2026-05-06 04:25 36.07641 -115.14664 2565 ft 178 kts 269°
2026-05-06 04:25 36.07685 -115.16270 3682 ft 188 kts 271°
2026-05-06 04:26 36.07733 -115.17920 4624 ft 200 kts 268°
2026-05-06 04:26 36.07709 -115.19691 5481 ft 213 kts 269°
2026-05-06 04:26 36.07667 -115.21597 6317 ft 232 kts 264°
2026-05-06 04:26 36.07351 -115.23635 7172 ft 247 kts 258°
2026-05-06 04:27 36.06905 -115.25764 7862 ft 271 kts 249°
2026-05-06 04:27 36.05778 -115.27661 8088 ft 284 kts 222°
2026-05-06 04:27 36.04005 -115.28765 8050 ft 291 kts 192°
2026-05-06 04:27 36.02005 -115.29083 8080 ft 288 kts 185°
2026-05-06 04:28 36.00018 -115.29328 8912 ft 289 kts 187°
2026-05-06 04:28 35.97991 -115.29619 9857 ft 297 kts 189°
2026-05-06 04:28 35.95934 -115.30145 10575 ft 312 kts 191°
2026-05-06 04:28 35.93763 -115.30689 11271 ft 326 kts 191°
2026-05-06 04:29 35.91482 -115.31262 11928 ft 342 kts 191°
2026-05-06 04:29 35.89095 -115.31857 12581 ft 358 kts 191°
2026-05-06 04:29 35.86609 -115.32480 13349 ft 371 kts 191°
2026-05-06 04:29 35.84061 -115.33117 14254 ft 377 kts 190°
2026-05-06 04:30 35.81471 -115.33760 15190 ft 382 kts 190°
2026-05-06 04:30 35.78853 -115.34410 16185 ft 386 kts 190°
2026-05-06 04:30 35.76212 -115.35062 17119 ft 389 kts 190°
2026-05-06 04:30 35.73542 -115.35724 18022 ft 394 kts 190°
2026-05-06 04:31 35.70842 -115.36389 18843 ft 398 kts 190°
2026-05-06 04:31 35.68104 -115.37066 19610 ft 404 kts 189°
2026-05-06 04:31 35.65332 -115.37749 20345 ft 409 kts 189°
2026-05-06 04:31 35.62532 -115.38455 21034 ft 414 kts 191°
2026-05-06 04:32 35.59844 -115.39788 21651 ft 423 kts 211°
2026-05-06 04:32 35.57618 -115.42172 22288 ft 428 kts 226°
2026-05-06 04:32 35.55659 -115.44888 22887 ft 433 kts 229°
2026-05-06 04:32 35.53656 -115.47679 23440 ft 438 kts 228°
2026-05-06 04:33 35.51630 -115.50503 23888 ft 443 kts 228°
2026-05-06 04:33 35.49567 -115.53383 23946 ft 452 kts 229°
2026-05-06 04:33 35.47505 -115.56291 23953 ft 454 kts 229°
2026-05-06 04:33 35.45393 -115.59252 23962 ft 467 kts 229°
2026-05-06 04:34 35.43236 -115.62277 23968 ft 473 kts 229°
2026-05-06 04:34 35.41060 -115.65322 23965 ft 478 kts 229°
2026-05-06 04:34 35.38852 -115.68406 23975 ft 482 kts 228°
2026-05-06 04:34 35.36633 -115.71499 23976 ft 484 kts 228°
2026-05-06 04:35 35.34387 -115.74572 23965 ft 483 kts 225°
2026-05-06 04:35 35.31957 -115.77421 23961 ft 484 kts 221°
2026-05-06 04:35 35.29457 -115.80179 23919 ft 483 kts 221°
2026-05-06 04:35 35.26979 -115.82941 23928 ft 482 kts 221°
2026-05-06 04:36 35.24496 -115.85707 23934 ft 483 kts 221°
2026-05-06 04:36 35.22044 -115.88440 23928 ft 483 kts 221°
2026-05-06 04:36 35.19562 -115.91208 23915 ft 483 kts 221°
2026-05-06 04:36 35.17079 -115.93975 23920 ft 483 kts 221°
2026-05-06 04:37 35.14598 -115.96741 23942 ft 483 kts 221°
2026-05-06 04:37 35.12113 -115.99508 23928 ft 483 kts 221°
2026-05-06 04:37 35.09626 -116.02278 23919 ft 484 kts 221°
2026-05-06 04:37 35.07137 -116.05045 23920 ft 484 kts 221°
2026-05-06 04:38 35.04653 -116.07807 23919 ft 483 kts 221°
2026-05-06 04:38 35.02167 -116.10567 23920 ft 484 kts 221°
2026-05-06 04:38 34.99679 -116.13330 23924 ft 482 kts 221°
2026-05-06 04:38 34.97214 -116.16063 23918 ft 478 kts 221°
2026-05-06 04:39 34.94751 -116.18792 23913 ft 478 kts 221°
2026-05-06 04:39 34.92365 -116.21616 23927 ft 479 kts 230°
2026-05-06 04:39 34.90613 -116.25050 23962 ft 478 kts 245°
2026-05-06 04:39 34.89236 -116.28739 23936 ft 478 kts 246°
2026-05-06 04:40 34.87840 -116.32389 23900 ft 468 kts 246°
2026-05-06 04:40 34.86480 -116.35914 23887 ft 455 kts 245°
2026-05-06 04:40 34.85133 -116.39384 23891 ft 451 kts 245°
2026-05-06 04:40 34.83791 -116.42822 23933 ft 449 kts 245°
2026-05-06 04:41 34.82450 -116.46254 23947 ft 448 kts 245°
2026-05-06 04:41 34.81116 -116.49654 23628 ft 443 kts 245°
2026-05-06 04:41 34.79801 -116.53007 23274 ft 436 kts 245°
2026-05-06 04:41 34.78708 -116.56410 22865 ft 429 kts 258°
2026-05-06 04:42 34.78269 -116.59976 22607 ft 425 kts 267°
2026-05-06 04:42 34.77959 -116.63573 22400 ft 428 kts 266°
2026-05-06 04:42 34.77628 -116.67148 22192 ft 423 kts 266°
2026-05-06 04:42 34.77296 -116.70685 22004 ft 422 kts 266°
2026-05-06 04:43 34.76958 -116.74219 22001 ft 421 kts 266°
2026-05-06 04:43 34.76616 -116.77762 22000 ft 422 kts 266°
2026-05-06 04:43 34.76273 -116.81288 21997 ft 418 kts 265°
2026-05-06 04:43 34.75927 -116.84827 21960 ft 422 kts 266°
2026-05-06 04:44 34.75578 -116.88390 21869 ft 422 kts 265°
2026-05-06 04:44 34.75223 -116.91902 21722 ft 417 kts 265°
2026-05-06 04:44 34.74871 -116.95395 21521 ft 415 kts 265°
2026-05-06 04:44 34.74522 -116.98824 21349 ft 414 kts 265°
2026-05-06 04:45 34.74172 -117.02287 21178 ft 412 kts 265°
2026-05-06 04:45 34.73819 -117.05737 21004 ft 410 kts 265°
2026-05-06 04:45 34.73469 -117.09174 20824 ft 409 kts 265°
2026-05-06 04:45 34.73117 -117.12601 20657 ft 408 kts 265°
2026-05-06 04:46 34.72767 -117.16014 20479 ft 406 kts 265°
2026-05-06 04:46 34.72416 -117.19419 20386 ft 406 kts 265°
2026-05-06 04:46 34.72065 -117.22817 20213 ft 405 kts 265°
2026-05-06 04:46 34.71715 -117.26201 20065 ft 403 kts 265°
2026-05-06 04:47 34.71364 -117.29572 19898 ft 401 kts 265°
2026-05-06 04:47 34.71015 -117.32932 19739 ft 400 kts 265°
2026-05-06 04:47 34.70665 -117.36280 19577 ft 399 kts 265°
2026-05-06 04:47 34.70316 -117.39616 19415 ft 397 kts 265°
2026-05-06 04:48 34.69966 -117.42952 19247 ft 399 kts 265°
2026-05-06 04:48 34.69614 -117.46289 19045 ft 399 kts 265°
2026-05-06 04:48 34.69260 -117.49626 18822 ft 398 kts 265°
2026-05-06 04:48 34.68906 -117.52956 18566 ft 397 kts 265°
2026-05-06 04:49 34.68554 -117.56267 18299 ft 394 kts 265°
2026-05-06 04:49 34.68201 -117.59568 17976 ft 394 kts 265°
2026-05-06 04:49 34.67969 -117.61749 17702 ft 392 kts 265°
2026-05-06 04:49 34.67619 -117.65021 17312 ft 388 kts 265°
2026-05-06 04:50 34.67278 -117.68263 16827 ft 387 kts 265°
2026-05-06 04:50 34.66935 -117.71488 16266 ft 383 kts 265°
2026-05-06 04:50 34.66595 -117.74684 15750 ft 379 kts 265°
2026-05-06 04:50 34.66260 -117.77834 15274 ft 374 kts 265°
2026-05-06 04:51 34.65925 -117.80956 14777 ft 371 kts 265°
2026-05-06 04:51 34.65596 -117.84021 14301 ft 360 kts 265°
2026-05-06 04:51 34.65275 -117.86981 13987 ft 346 kts 265°
2026-05-06 04:51 34.64963 -117.89825 13687 ft 333 kts 265°
2026-05-06 04:52 34.64660 -117.92555 13510 ft 318 kts 265°
2026-05-06 04:52 34.64371 -117.95174 13378 ft 310 kts 265°
2026-05-06 04:52 34.64086 -117.97773 13262 ft 312 kts 266°
2026-05-06 04:52 34.63800 -118.00390 13141 ft 312 kts 265°
2026-05-06 04:53 34.63512 -118.03008 12984 ft 313 kts 265°
2026-05-06 04:53 34.63223 -118.05627 12732 ft 313 kts 265°
2026-05-06 04:53 34.62846 -118.08243 12398 ft 315 kts 257°
2026-05-06 04:53 34.62230 -118.10793 12100 ft 316 kts 256°
2026-05-06 04:54 34.61642 -118.13337 11638 ft 318 kts 257°
2026-05-06 04:54 34.61051 -118.15915 11202 ft 316 kts 257°
2026-05-06 04:54 34.60469 -118.18481 10762 ft 314 kts 257°
2026-05-06 04:54 34.59893 -118.21034 10342 ft 312 kts 257°
2026-05-06 04:55 34.59322 -118.23569 9927 ft 311 kts 257°
2026-05-06 04:55 34.58759 -118.26089 9512 ft 308 kts 257°
2026-05-06 04:55 34.58202 -118.28582 9110 ft 304 kts 257°
2026-05-06 04:55 34.57652 -118.31041 8713 ft 300 kts 256°
2026-05-06 04:56 34.57108 -118.33472 8321 ft 297 kts 256°
2026-05-06 04:56 34.56578 -118.35847 8132 ft 287 kts 256°
2026-05-06 04:56 34.56051 -118.38177 7963 ft 285 kts 256°
2026-05-06 04:56 34.55532 -118.40471 7973 ft 284 kts 257°
2026-05-06 04:57 34.54859 -118.42724 7989 ft 288 kts 241°
2026-05-06 04:57 34.53477 -118.44468 8009 ft 290 kts 216°
2026-05-06 04:57 34.51772 -118.45808 8012 ft 293 kts 212°
2026-05-06 04:57 34.50053 -118.47146 7983 ft 292 kts 214°
2026-05-06 04:58 34.48476 -118.48707 7814 ft 292 kts 226°
2026-05-06 04:58 34.47085 -118.50445 7654 ft 283 kts 227°
2026-05-06 04:58 34.45776 -118.52160 7503 ft 272 kts 229°
2026-05-06 04:58 34.44523 -118.53807 7413 ft 260 kts 229°
2026-05-06 04:59 34.43319 -118.55363 7382 ft 247 kts 228°
2026-05-06 04:59 34.42170 -118.56847 7333 ft 236 kts 228°
2026-05-06 04:59 34.41062 -118.58278 7244 ft 232 kts 228°
2026-05-06 04:59 34.39954 -118.59710 7188 ft 233 kts 228°
2026-05-06 05:00 34.38852 -118.61159 7150 ft 235 kts 228°
2026-05-06 05:00 34.37572 -118.62384 7071 ft 239 kts 202°
2026-05-06 05:00 34.35929 -118.62650 6861 ft 242 kts 173°
2026-05-06 05:00 34.34267 -118.62342 6657 ft 241 kts 171°
2026-05-06 05:01 34.32617 -118.62034 6423 ft 240 kts 172°
2026-05-06 05:01 34.30983 -118.61720 5992 ft 240 kts 172°
2026-05-06 05:01 34.29340 -118.61395 5574 ft 238 kts 171°
2026-05-06 05:01 34.27712 -118.61071 5166 ft 236 kts 172°
2026-05-06 05:02 34.26136 -118.60748 5018 ft 217 kts 171°
2026-05-06 05:02 34.24673 -118.60442 5014 ft 211 kts 171°
2026-05-06 05:02 34.23247 -118.60143 5029 ft 204 kts 172°
2026-05-06 05:02 34.21887 -118.59915 5021 ft 192 kts 166°
2026-05-06 05:03 34.20794 -118.59097 5008 ft 185 kts 128°
2026-05-06 05:03 34.20231 -118.57699 5028 ft 187 kts 111°
2026-05-06 05:03 34.20012 -118.56129 4829 ft 190 kts 90°
2026-05-06 05:03 34.20047 -118.54560 4544 ft 186 kts 90°
2026-05-06 05:04 34.20015 -118.53015 4209 ft 181 kts 93°
2026-05-06 05:04 34.19974 -118.51523 3793 ft 173 kts 91°
2026-05-06 05:04 34.19958 -118.50107 3378 ft 164 kts 92°
2026-05-06 05:04 34.19943 -118.48756 2992 ft 157 kts 92°
2026-05-06 05:05 34.19932 -118.47519 2903 ft 143 kts 91°
2026-05-06 05:05 34.19902 -118.46364 2867 ft 132 kts 92°
2026-05-06 05:05 34.19873 -118.45288 2691 ft 122 kts 92°
2026-05-06 05:05 34.19863 -118.44266 2430 ft 118 kts 93°
2026-05-06 05:06 34.19858 -118.43239 2195 ft 126 kts 89°
2026-05-06 05:06 34.19835 -118.42203 2070 ft 123 kts 90°
2026-05-06 05:06 34.19837 -118.41140 1787 ft 127 kts 92°
2026-05-06 05:06 34.19810 -118.40081 1506 ft 127 kts 90°
2026-05-06 05:07 34.19820 -118.39010 1266 ft 127 kts 94°
2026-05-06 05:07 34.19810 -118.37968 982 ft 123 kts 96°
2026-05-06 05:07 34.19794 -118.36927 762 ft 124 kts 92°
2026-05-06 05:07 34.19777 -118.35990 701 ft 95 kts 91°
2026-05-06 05:08 34.19773 -118.35494 695 ft 42 kts 92°
2026-05-06 05:08 34.19762 -118.35236 690 ft 19 kts 121°
2026-05-06 05:08 34.19699 -118.35195 690 ft 6 kts 174°
2026-05-06 05:08 34.19679 -118.35196 689 ft 0 kts 182°
2026-05-06 05:09 34.19678 -118.35196 689 ft 0 kts 182°